Regional Weather Roundup
Issued by NWS State College, PA

Home | Current Version | Previous Version | Graphics & Text | Print | Product List | Glossary Off
Versions: 1 2 3 4 5 6 7 8 9 10 11 12 13 14 15 16 17 18 19 20 21 22 23 24 25 26 27 28 29 30 31 32 33 34 35 36 37 38 39 40 41 42 43 44 45 46 47 48 49 50

000
ASUS41 KCTP 301510
RWRCTP

REGIONAL WEATHER ROUNDUP
NATIONAL WEATHER SERVICE STATE COLLEGE PA
1100 AM EDT TUE SEP 30 2014

Note: "fair" indicates few or no clouds below 12,000 feet with no
significant weather and/or obstructions to visibility.

* = STATION THAT DOES NOT REPORT PRECIPITATION /E.G. RAIN...SNOW...ETC/
    THUNDER OR FOG.

PAZ002>004-007>009-013>016-020>023-029>032-301600-
WESTERN PENNSYLVANIA

CITY           SKY/WX    TMP DP  RH WIND       PRES   REMARKS
ERIE           RAIN      60  56  86 SE6       29.91S FOG
MEADVILLE      LGT RAIN  58  55  90 E6        29.92F FOG
FRANKLIN*      PTSUNNY   63  54  72 N10       29.94F
NEW CASTLE     LGT RAIN  62  58  87 W3        29.96R
BEAVER COUNTY  MOSUNNY   64  57  77 NW6       29.93R
BUTLER*        SUNNY     66  57  72 CALM      29.93F
PITTSBURGH INT MOSUNNY   69  57  65 W10       29.92R
PITTSBURGH     SUNNY     69  55  60 SW7       29.91S
INDIANA*       SUNNY     70  61  73 SW8       29.95F
LATROBE        MOSUNNY   72  63  73 MISG      29.93S
WASHINGTON CO* SUNNY     72  57  60 W6        29.94S
$$

PAZ004>006-010>012-017>019-024>028-033>037-041-042-045-046-049>053-301600-
CENTRAL PENNSYLVANIA

CITY           SKY/WX    TMP DP  RH WIND       PRES   REMARKS
BRADFORD       SUNNY     66  53  63 CALM      29.94R
DUBOIS         SUNNY     67  58  72 SE3       29.92F
CLEARFIELD     SUNNY     62  57  83 CALM      29.93F
JOHNSTOWN      MOSUNNY   68  57  68 W5        29.95S
ALTOONA        SUNNY     69  59  70 S5        29.93F
STATE COLLEGE  MOSUNNY   63  59  88 CALM      29.93F FOG
WILLIAMSPORT   CLOUDY    64  58  80 CALM      29.91F
SELINSGROVE    CLOUDY    63  60  90 CALM      29.94F FOG
FT INDIANTOWN  PTSUNNY   68  66  94 E3        29.94F
CAPITAL CITY   CLOUDY    65  61  87 E5        29.94S FOG
HARRISBURG     CLOUDY    64  62  93 CALM      29.94S FOG
YORK           CLOUDY    68  61  78 CALM      29.94S
$$

PAZ038>040-043-044-047-048-054-055-060>062-067>071-301600-
EASTERN PENNSYLVANIA

CITY           SKY/WX    TMP DP  RH WIND       PRES   REMARKS
SCRANTON       MOSUNNY   71  59  65 VRB7      29.94F
MOUNT POCONO   MOSUNNY   64  56  75 S8        29.98F
ALLENTOWN      CLOUDY    66  60  81 SE5       29.96S
QUAKERTOWN*    PTSUNNY   66  61  82 CALM      29.96F
READING        PTSUNNY   70  59  68 CALM      29.93F
LANCASTER      PTSUNNY   68  61  78 CALM      29.94F HAZE
COATESVILLE    PTSUNNY   68  59  73 E3        29.95S
POTTSTOWN      CLOUDY    68  61  78 CALM      29.95F
BLUE BELL      SUNNY     73  59  60 CALM      29.93F
DOYLESTOWN     SUNNY     70  59  68 CALM      29.94F
WILLOW GROVE   NOT AVBL
NORTH PHILA    SUNNY     75  55  49 VRB3      29.95F
PHILADELPHIA   MOSUNNY   74  56  53 E5        29.94F
$$



USA.gov is the U.S. government's official web portal to all federal, state and local government web resources and services.